
Distance (Route):
Temperature : 20.1°C
Humidity : 100.0%
Pressure : 0hPa| Receiver | Date | Latitude | Longitude | Direction | Speed | Altitude | Climb | Temperature | Humidity | Pressure | Voltage | Killtimer | Uptime | BKT | XDATA |
|---|---|---|---|---|---|---|---|---|---|---|---|---|---|---|---|
| LZ4TU-5 | 2026-08-30 07:00:03 | 44.10855 | 22.93777 | 214° | 4km/h | 300m | -11.2m/s | 20.1°C | 100.0% | 0hPa | 0V | 00:00:00 | 00:00:00 | 00:00:00 | |
| LZ4TU-5 | 2026-08-30 06:59:59 | 44.10859 | 22.93782 | 216° | 4km/h | 346m | -11.9m/s | 19.6°C | 73.6% | 0hPa | 0V | 00:00:00 | 00:00:00 | 00:00:00 | |
| LZ4TU-5 | 2026-08-30 06:59:54 | 44.10863 | 22.93784 | 0° | 0km/h | 395m | -12.3m/s | 19.6°C | 68.9% | 0hPa | 0V | 00:00:00 | 00:00:00 | 00:00:00 | |
| LZ4TU-5 | 2026-08-30 06:59:50 | 44.10860 | 22.93786 | 356° | 4km/h | 445m | -11.8m/s | 20.1°C | 59.4% | 0hPa | 0V | 00:00:00 | 00:00:00 | 00:00:00 | |
| LZ4TU-5 | 2026-08-30 06:59:45 | 44.10854 | 22.93787 | 1° | 7km/h | 508m | -13.0m/s | 19.9°C | 57.1% | 0hPa | 0V | 00:00:00 | 00:00:00 | 00:00:00 | |
| LZ4TU-5 | 2026-08-30 06:59:40 | 44.10840 | 22.93789 | 356° | 13km/h | 576m | -12.9m/s | 21.0°C | 51.8% | 0hPa | 0V | 00:00:00 | 00:00:00 | 00:00:00 | |
| LZ4TU-5 | 2026-08-30 06:59:36 | 44.10828 | 22.93792 | 350° | 13km/h | 630m | -12.7m/s | 21.0°C | 48.0% | 0hPa | 0V | 00:00:00 | 00:00:00 | 00:00:00 | |
| LZ4TU-5 | 2026-08-30 06:59:31 | 44.10811 | 22.93797 | 348° | 15km/h | 697m | -13.2m/s | 20.8°C | 47.9% | 0hPa | 0V | 00:00:00 | 00:00:00 | 00:00:00 | |
| LZ4TU-5 | 2026-08-30 06:59:26 | 44.10791 | 22.93802 | 353° | 16km/h | 764m | -12.9m/s | 20.8°C | 47.7% | 0hPa | 0V | 00:00:00 | 00:00:00 | 00:00:00 | |
| LZ4TU-5 | 2026-08-30 06:59:21 | 44.10769 | 22.93807 | 350° | 16km/h | 824m | -13.1m/s | 20.8°C | 47.9% | 0hPa | 0V | 00:00:00 | 00:00:00 | 00:00:00 | |
| LZ4TU-5 | 2026-08-30 06:59:16 | 44.10751 | 22.93812 | 347° | 15km/h | 881m | -13.1m/s | 20.3°C | 52.5% | 0hPa | 0V | 00:00:00 | 00:00:00 | 00:00:00 | |
| LZ4TU-5 | 2026-08-30 06:59:11 | 44.10734 | 22.93818 | 349° | 13km/h | 950m | -13.2m/s | 19.7°C | 0% | 0hPa | 0V | 00:00:00 | 00:00:00 | 00:00:00 | |
| LZ4TU-5 | 2026-08-30 06:59:06 | 44.10720 | 22.93821 | 356° | 9km/h | 1019m | -12.8m/s | 19.5°C | 60.3% | 0hPa | 0V | 00:00:00 | 00:00:00 | 00:00:00 | |
| LZ4TU-5 | 2026-08-30 06:59:01 | 44.10711 | 22.93823 | 348° | 5km/h | 1088m | -13.0m/s | 19.0°C | 60.9% | 0hPa | 0V | 00:00:00 | 00:00:00 | 00:00:00 | |
| LZ4TU-5 | 2026-08-30 06:58:57 | 44.10706 | 22.93825 | 332° | 2km/h | 1142m | -12.7m/s | 18.7°C | 61.0% | 0hPa | 0V | 00:00:00 | 00:00:00 | 00:00:00 | |
| LZ4TU-5 | 2026-08-30 06:58:52 | 44.10708 | 22.93830 | 243° | 7km/h | 1210m | -13.0m/s | 18.7°C | 60.5% | 0hPa | 0V | 00:00:00 | 00:00:00 | 00:00:00 | |
| LZ4TU-5 | 2026-08-30 06:58:48 | 44.10712 | 22.93838 | 233° | 9km/h | 1262m | -13.4m/s | 18.4°C | 60.9% | 0hPa | 0V | 00:00:00 | 00:00:00 | 00:00:00 | |
| LZ4TU-5 | 2026-08-30 06:58:43 | 44.10722 | 22.93851 | 217° | 13km/h | 1317m | -13.2m/s | 18.0°C | 61.4% | 0hPa | 0V | 00:00:00 | 00:00:00 | 00:00:00 | |
| LZ4TU-5 | 2026-08-30 06:58:39 | 44.10732 | 22.93861 | 211° | 15km/h | 1373m | -13.0m/s | 17.6°C | 61.6% | 0hPa | 0V | 00:00:00 | 00:00:00 | 00:00:00 | |
| LZ4TU-5 | 2026-08-30 06:58:34 | 44.10749 | 22.93872 | 206° | 15km/h | 1440m | -13.3m/s | 17.7°C | 61.7% | 0hPa | 0V | 00:00:00 | 00:00:00 | 00:00:00 | |
| LZ4TU-5 | 2026-08-30 06:58:30 | 44.10762 | 22.93879 | 200° | 15km/h | 1497m | -14.3m/s | 17.5°C | 59.7% | 0hPa | 0V | 00:00:00 | 00:00:00 | 00:00:00 | |
| LZ4TU-5 | 2026-08-30 06:58:25 | 44.10779 | 22.93884 | 184° | 15km/h | 1568m | -13.6m/s | 17.3°C | 59.7% | 0hPa | 0V | 00:00:00 | 00:00:00 | 00:00:00 | |
| LZ4TU-5 | 2026-08-30 06:58:20 | 44.10795 | 22.93884 | 168° | 11km/h | 1639m | -14.0m/s | 17.1°C | 60.0% | 0hPa | 0V | 00:00:00 | 00:00:00 | 00:00:00 | |
| LZ4TU-5 | 2026-08-30 06:58:15 | 44.10810 | 22.93877 | 149° | 9km/h | 1698m | -14.4m/s | 16.6°C | 58.7% | 0hPa | 0V | 00:00:00 | 00:00:00 | 00:00:00 | |
| LZ4TU-5 | 2026-08-30 06:58:11 | 44.10818 | 22.93869 | 142° | 11km/h | 1754m | -12.6m/s | 16.1°C | 59.5% | 0hPa | 0V | 00:00:00 | 00:00:00 | 00:00:00 | |
| LZ4TU-5 | 2026-08-30 06:58:07 | 44.10826 | 22.93857 | 124° | 15km/h | 1808m | -13.6m/s | 15.7°C | 60.9% | 0hPa | 0V | 00:00:00 | 00:00:00 | 00:00:00 | |
| LZ4TU-5 | 2026-08-30 06:58:02 | 44.10836 | 22.93836 | 121° | 16km/h | 1875m | -12.5m/s | 15.2°C | 63.4% | 0hPa | 0V | 00:00:00 | 00:00:00 | 00:00:00 | |
| LZ4TU-5 | 2026-08-30 06:57:58 | 44.10843 | 22.93817 | 117° | 16km/h | 1928m | -13.1m/s | 14.8°C | 64.8% | 0hPa | 0V | 00:00:00 | 00:00:00 | 00:00:00 | |
| LZ4TU-5 | 2026-08-30 06:57:53 | 44.10852 | 22.93791 | 117° | 16km/h | 1997m | -12.9m/s | 14.7°C | 63.4% | 0hPa | 0V | 00:00:00 | 00:00:00 | 00:00:00 | |
| LZ4TU-5 | 2026-08-30 06:57:49 | 44.10860 | 22.93771 | 116° | 15km/h | 2048m | -12.6m/s | 14.3°C | 63.2% | 0hPa | 0V | 00:00:00 | 00:00:00 | 00:00:00 | |
| LZ4TU-5 | 2026-08-30 06:57:44 | 44.10869 | 22.93747 | 118° | 15km/h | 2103m | -13.9m/s | 13.8°C | 62.0% | 0hPa | 0V | 00:00:00 | 00:00:00 | 00:00:00 | |
| LZ4TU-5 | 2026-08-30 06:57:39 | 44.10876 | 22.93726 | 115° | 13km/h | 2176m | -13.8m/s | 13.3°C | 60.9% | 0hPa | 0V | 00:00:00 | 00:00:00 | 00:00:00 | |
| LZ4TU-5 | 2026-08-30 06:57:35 | 44.10880 | 22.93708 | 104° | 15km/h | 2233m | -14.1m/s | 13.5°C | 52.7% | 0hPa | 0V | 00:00:00 | 00:00:00 | 00:00:00 | |
| LZ4TU-5 | 2026-08-30 06:57:30 | 44.10884 | 22.93685 | 107° | 15km/h | 2306m | -14.2m/s | 13.1°C | 51.9% | 0hPa | 0V | 00:00:00 | 00:00:00 | 00:00:00 | |
| LZ4TU-5 | 2026-08-30 06:57:26 | 44.10887 | 22.93669 | 119° | 11km/h | 2365m | -14.4m/s | 12.8°C | 53.4% | 0hPa | 0V | 00:00:00 | 00:00:00 | 00:00:00 | |
| LZ4TU-5 | 2026-08-30 06:57:22 | 44.10892 | 22.93658 | 136° | 9km/h | 2421m | -14.0m/s | 12.6°C | 56.1% | 0hPa | 0V | 00:00:00 | 00:00:00 | 00:00:00 | |
| LZ4TU-5 | 2026-08-30 06:57:17 | 44.10904 | 22.93645 | 147° | 9km/h | 2479m | -14.2m/s | 12.0°C | 58.8% | 0hPa | 0V | 00:00:00 | 00:00:00 | 00:00:00 | |
| LZ4TU-5 | 2026-08-30 06:57:12 | 44.10916 | 22.93634 | 145° | 11km/h | 2548m | -13.6m/s | 11.4°C | 61.9% | 0hPa | 0V | 00:00:00 | 00:00:00 | 00:00:00 | |
| LZ4TU-5 | 2026-08-30 06:57:07 | 44.10927 | 22.93622 | 139° | 13km/h | 2620m | -13.7m/s | 10.8°C | 64.7% | 0hPa | 0V | 00:00:00 | 00:00:00 | 00:00:00 | |
| LZ4TU-5 | 2026-08-30 06:57:03 | 44.10936 | 22.93610 | 132° | 13km/h | 2678m | -13.6m/s | 10.4°C | 0% | 0hPa | 0V | 00:00:00 | 00:00:00 | 00:00:00 | |
| LZ4TU-5 | 2026-08-30 06:56:58 | 44.10946 | 22.93591 | 120° | 15km/h | 2746m | -12.3m/s | 9.8°C | 63.7% | 0hPa | 0V | 00:00:00 | 00:00:00 | 00:00:00 | |
| LZ4TU-5 | 2026-08-30 06:56:53 | 44.10954 | 22.93568 | 112° | 15km/h | 2810m | -12.3m/s | 9.3°C | 65.2% | 0hPa | 0V | 00:00:00 | 00:00:00 | 00:00:00 | |
| LZ4TU-5 | 2026-08-30 06:56:48 | 44.10960 | 22.93541 | 103° | 16km/h | 2869m | -11.1m/s | 8.8°C | 66.4% | 0hPa | 0V | 00:00:00 | 00:00:00 | 00:00:00 | |
| LZ4TU-5 | 2026-08-30 06:56:44 | 44.10964 | 22.93516 | 105° | 18km/h | 2904m | -11.5m/s | 8.5°C | 66.9% | 0hPa | 0V | 00:00:00 | 00:00:00 | 00:00:00 | |
| LZ4TU-5 | 2026-08-30 06:56:39 | 44.10970 | 22.93485 | 104° | 18km/h | 2965m | -11.4m/s | 8.0°C | 68.4% | 0hPa | 0V | 00:00:00 | 00:00:00 | 00:00:00 | |
| LZ4TU-5 | 2026-08-30 06:56:35 | 44.10973 | 22.93460 | 101° | 20km/h | 3014m | -11.6m/s | 7.5°C | 69.8% | 0hPa | 0V | 00:00:00 | 00:00:00 | 00:00:00 | |
| LZ4TU-5 | 2026-08-30 06:56:30 | 44.10978 | 22.93424 | 100° | 22km/h | 3075m | -11.4m/s | 7.0°C | 71.9% | 0hPa | 0V | 00:00:00 | 00:00:00 | 00:00:00 | |
| LZ4TU-5 | 2026-08-30 06:56:25 | 44.10981 | 22.93387 | 97° | 22km/h | 3136m | -11.7m/s | 6.5°C | 73.4% | 0hPa | 0V | 00:00:00 | 00:00:00 | 00:00:00 | |
| LZ4TU-5 | 2026-08-30 06:56:16 | 44.10987 | 22.93315 | 96° | 24km/h | 3247m | -11.8m/s | 5.4°C | 77.9% | 0hPa | 0V | 00:00:00 | 00:00:00 | 00:00:00 | |
| LZ4TU-5 | 2026-08-30 06:56:11 | 44.10990 | 22.93273 | 98° | 22km/h | 3294m | -11.9m/s | 4.9°C | 80.4% | 0hPa | 0V | 00:00:00 | 00:00:00 | 00:00:00 | |
| LZ4TU-5 | 2026-08-30 06:56:07 | 44.10992 | 22.93245 | 95° | 20km/h | 3344m | -12.1m/s | 4.4°C | 83.2% | 0hPa | 0V | 00:00:00 | 00:00:00 | 00:00:00 | |
| LZ4TU-5 | 2026-08-30 06:56:02 | 44.10992 | 22.93211 | 90° | 18km/h | 3413m | -14.3m/s | 3.9°C | 84.6% | 0hPa | 0V | 00:00:00 | 00:00:00 | 00:00:00 | |
| LZ4TU-5 | 2026-08-30 06:55:58 | 44.10992 | 22.93185 | 86° | 18km/h | 3474m | -14.2m/s | 3.6°C | 77.5% | 0hPa | 0V | 00:00:00 | 00:00:00 | 00:00:00 | |
| LZ4TU-5 | 2026-08-30 06:55:54 | 44.10990 | 22.93162 | 87° | 16km/h | 3534m | -14.7m/s | 3.2°C | 73.4% | 0hPa | 0V | 00:00:00 | 00:00:00 | 00:00:00 | |
| LZ4TU-5 | 2026-08-30 06:55:49 | 44.10989 | 22.93132 | 89° | 18km/h | 3609m | -14.1m/s | 3.1°C | 53.3% | 0hPa | 0V | 00:00:00 | 00:00:00 | 00:00:00 | |
| LZ4TU-5 | 2026-08-30 06:55:45 | 44.10988 | 22.93108 | 85° | 20km/h | 3665m | -14.2m/s | 2.7°C | 48.2% | 0hPa | 0V | 00:00:00 | 00:00:00 | 00:00:00 | |
| LZ4TU-5 | 2026-08-30 06:55:41 | 44.10985 | 22.93077 | 76° | 22km/h | 3713m | -14.6m/s | 2.3°C | 54.1% | 0hPa | 0V | 00:00:00 | 00:00:00 | 00:00:00 | |
| LZ4TU-5 | 2026-08-30 06:55:36 | 44.10976 | 22.93038 | 73° | 24km/h | 3786m | -14.6m/s | 1.7°C | 65.7% | 0hPa | 0V | 00:00:00 | 00:00:00 | 00:00:00 | |
| LZ4TU-5 | 2026-08-30 06:54:10 | 44.10912 | 22.92290 | 83° | 24km/h | 5076m | -14.4m/s | -4.8°C | 15.8% | 0hPa | 0V | 00:00:00 | 00:00:00 | 00:00:00 | |
| LZ4TU-5 | 2026-08-30 06:54:05 | 44.10911 | 22.92248 | 83° | 24km/h | 5137m | -15.3m/s | -5.2°C | 15.6% | 0hPa | 0V | 00:00:00 | 00:00:00 | 00:00:00 | |
| LZ4TU-5 | 2026-08-30 06:52:37 | 44.11010 | 22.91681 | 126° | 24km/h | 6478m | -16.5m/s | -12.8°C | 31.3% | 0hPa | 0V | 00:00:00 | 00:00:00 | 00:00:00 | |
| LZ4TU-5 | 2026-08-30 06:52:32 | 44.11026 | 22.91647 | 126° | 26km/h | 6561m | -14.6m/s | -13.3°C | 30.9% | 0hPa | 0V | 00:00:00 | 00:00:00 | 00:00:00 | |
| LZ4TU-5 | 2026-08-30 06:50:58 | 44.11467 | 22.90706 | 117° | 37km/h | 7986m | -15.9m/s | -23.5°C | 16.7% | 0hPa | 0V | 00:00:00 | 00:00:00 | 00:00:00 | |
| LZ4TU-5 | 2026-08-30 06:50:53 | 44.11486 | 22.90649 | 113° | 35km/h | 8070m | -15.6m/s | -24.2°C | 18.7% | 0hPa | 0V | 00:00:00 | 00:00:00 | 00:00:00 | |
| LZ4TU-5 | 2026-08-30 06:50:48 | 44.11503 | 22.90590 | 113° | 37km/h | 8148m | -14.9m/s | -24.9°C | 0% | 0hPa | 0V | 00:00:00 | 00:00:00 | 00:00:00 | |
| LZ4TU-5 | 2026-08-30 06:49:22 | 44.11946 | 22.89302 | 122° | 55km/h | 9568m | -16.7m/s | -36.2°C | 59.5% | 0hPa | 0V | 00:00:00 | 00:00:00 | 00:00:00 | |
| LZ4TU-5 | 2026-08-30 06:49:17 | 44.11982 | 22.89223 | 121° | 53km/h | 9652m | -16.1m/s | -37.0°C | 59.4% | 0hPa | 0V | 00:00:00 | 00:00:00 | 00:00:00 | |
| LZ4TU-5 | 2026-08-30 06:47:05 | 44.13302 | 22.87017 | 130° | 69km/h | 11985m | -19.3m/s | -54.1°C | 27.0% | 0hPa | 0V | 00:00:00 | 00:00:00 | 00:00:00 | |
| LZ4TU-5 | 2026-08-30 06:47:00 | 44.13357 | 22.86924 | 129° | 69km/h | 12066m | -19.6m/s | -54.4°C | 24.7% | 0hPa | 0V | 00:00:00 | 00:00:00 | 00:00:00 | |
| LZ4TU-5 | 2026-08-30 06:45:28 | 44.14111 | 22.85366 | 116° | 46km/h | 13987m | -22.3m/s | -59.3°C | 0.3% | 0hPa | 0V | 00:00:00 | 00:00:00 | 00:00:00 | |
| LZ4TU-5 | 2026-08-30 06:45:24 | 44.14131 | 22.85301 | 115° | 58km/h | 14076m | -22.1m/s | -59.7°C | 0.1% | 0hPa | 0V | 00:00:00 | 00:00:00 | 00:00:00 | |
| LZ4TU-5 | 2026-08-30 06:43:59 | 44.14326 | 22.84141 | 79° | 44km/h | 16069m | -25.7m/s | -58.5°C | 0.0% | 0hPa | 0V | 00:00:00 | 00:00:00 | 00:00:00 | |
| LZ4TU-5 | 2026-08-30 06:43:55 | 44.14317 | 22.84075 | 84° | 51km/h | 16176m | -26.5m/s | -57.9°C | 0.0% | 0hPa | 0V | 00:00:00 | 00:00:00 | 00:00:00 | |
| LZ4TU-5 | 2026-08-30 06:42:23 | 44.14434 | 22.83584 | 0° | 0km/h | 18910m | -32.3m/s | -56.6°C | 0.0% | 0hPa | 0V | 00:00:00 | 00:00:00 | 00:00:00 | |
| LZ4TU-5 | 2026-08-30 06:42:19 | 44.14436 | 22.83580 | 0° | 0km/h | 19007m | -32.8m/s | -56.3°C | 0% | 0hPa | 0V | 00:00:00 | 00:00:00 | 00:00:00 | |
| LZ4TU-5 | 2026-08-30 06:40:43 | 44.14410 | 22.83796 | 285° | 11km/h | 22612m | -42.7m/s | -54.4°C | 0.0% | 0hPa | 0V | 00:00:00 | 00:00:00 | 00:00:00 | |
| LZ4TU-5 | 2026-08-30 06:40:38 | 44.14410 | 22.83824 | 277° | 24km/h | 22822m | -42.3m/s | -53.7°C | 0.0% | 0hPa | 0V | 00:00:00 | 00:00:00 | 00:00:00 | |
| LZ4TU-5 | 2026-08-30 06:39:12 | 44.15461 | 22.83627 | 344° | 73km/h | 31227m | 5.8m/s | -46.8°C | 0.0% | 0hPa | 0V | 00:00:00 | 00:00:00 | 00:00:00 | |
| LZ4TU-5 | 2026-08-30 06:39:08 | 44.15404 | 22.83649 | 348° | 77km/h | 31206m | 5.9m/s | -45.9°C | 0.0% | 0hPa | 0V | 00:00:00 | 00:00:00 | 00:00:00 | |
| LZ4TU-5 | 2026-08-30 06:37:43 | 44.14231 | 22.83756 | 225° | 11km/h | 30661m | 6.9m/s | -41.1°C | 0.0% | 0hPa | 0V | 00:00:00 | 00:00:00 | 00:00:00 | |
| LZ4TU-5 | 2026-08-30 06:37:38 | 44.14241 | 22.83770 | 267° | 7km/h | 30623m | 6.7m/s | -41.0°C | 0.0% | 0hPa | 0V | 00:00:00 | 00:00:00 | 00:00:00 | |
| LZ4TU-5 | 2026-08-30 06:36:06 | 44.14088 | 22.83370 | 32° | 38km/h | 29954m | 7.1m/s | -44.6°C | 0.3% | 0hPa | 0V | 00:00:00 | 00:00:00 | 00:00:00 | |
| LZ4TU-5 | 2026-08-30 06:36:01 | 44.14050 | 22.83347 | 355° | 24km/h | 29916m | 6.6m/s | -44.3°C | 0% | 0hPa | 0V | 00:00:00 | 00:00:00 | 00:00:00 | |
| LZ4TU-5 | 2026-08-30 06:34:35 | 44.13880 | 22.83305 | 156° | 31km/h | 29320m | 7.0m/s | -45.0°C | 0.2% | 0hPa | 0V | 00:00:00 | 00:00:00 | 00:00:00 | |
| LZ4TU-5 | 2026-08-30 06:34:30 | 44.13908 | 22.83277 | 73° | 9km/h | 29283m | 7.0m/s | -45.1°C | 0.2% | 0hPa | 0V | 00:00:00 | 00:00:00 | 00:00:00 | |
| LZ4TU-5 | 2026-08-30 06:34:25 | 44.13904 | 22.83275 | 148° | 13km/h | 29249m | 7.7m/s | -45.5°C | 0.3% | 0hPa | 0V | 00:00:00 | 00:00:00 | 00:00:00 | |
| LZ4TU-5 | 2026-08-30 06:33:01 | 44.13753 | 22.82937 | 351° | 26km/h | 28602m | 5.8m/s | -45.7°C | 0.3% | 0hPa | 0V | 00:00:00 | 00:00:00 | 00:00:00 | |
| LZ4TU-5 | 2026-08-30 06:32:57 | 44.13728 | 22.82947 | 348° | 27km/h | 28577m | 6.3m/s | -45.7°C | 0.3% | 0hPa | 0V | 00:00:00 | 00:00:00 | 00:00:00 | |
| OM5KV | 2026-08-30 06:31:39 | 44.13541 | 22.82972 | 65° | 7km/h | 28019m | 5.1m/s | -45.9°C | 0.1% | 0hPa | 0V | 00:00:00 | 00:00:00 | 00:00:00 | |
| LZ4TU-5 | 2026-08-30 06:31:32 | 44.13537 | 22.82986 | 192° | 11km/h | 27981m | 5.3m/s | -45.7°C | 0.0% | 0hPa | 0V | 00:00:00 | 00:00:00 | 00:00:00 | |
| LZ4TU-5 | 2026-08-30 06:31:27 | 44.13550 | 22.82988 | 203° | 5km/h | 27952m | 5.9m/s | -45.8°C | 0.1% | 0hPa | 0V | 00:00:00 | 00:00:00 | 00:00:00 | |
| OM5KV | 2026-08-30 06:31:22 | 44.13556 | 22.82991 | 255° | 7km/h | 27919m | 5.6m/s | -45.7°C | 0.0% | 0hPa | 0V | 00:00:00 | 00:00:00 | 00:00:00 | |
| OM5KV | 2026-08-30 06:31:14 | 44.13586 | 22.82987 | 50° | 5km/h | 27875m | 6.5m/s | -45.9°C | 0.0% | 0hPa | 0V | 00:00:00 | 00:00:00 | 00:00:00 | |
| OM5KV | 2026-08-30 06:31:09 | 44.13597 | 22.82995 | 180° | 16km/h | 27844m | 7.7m/s | -46.1°C | 0.0% | 0hPa | 0V | 00:00:00 | 00:00:00 | 00:00:00 | |
| OM5KV | 2026-08-30 06:31:08 | 44.13602 | 22.82995 | 171° | 16km/h | 27837m | 6.9m/s | -46.1°C | 0.0% | 0hPa | 0V | 00:00:00 | 00:00:00 | 00:00:00 | |
| OM5KV | 2026-08-30 06:31:00 | 44.13636 | 22.82981 | 89° | 11km/h | 27782m | 5.5m/s | -46.0°C | 0.0% | 0hPa | 0V | 00:00:00 | 00:00:00 | 00:00:00 | |
| OM5KV | 2026-08-30 06:30:59 | 44.13636 | 22.82976 | 113° | 16km/h | 27776m | 7.0m/s | -45.9°C | 0.0% | 0hPa | 0V | 00:00:00 | 00:00:00 | 00:00:00 | |
| OM5KV | 2026-08-30 06:30:50 | 44.13669 | 22.82946 | 56° | 16km/h | 27721m | 5.2m/s | -45.6°C | 0.0% | 0hPa | 0V | 00:00:00 | 00:00:00 | 00:00:00 | |
| OM5KV | 2026-08-30 06:30:42 | 44.13692 | 22.82913 | 176° | 13km/h | 27672m | 7.1m/s | -45.5°C | 0.0% | 0hPa | 0V | 00:00:00 | 00:00:00 | 00:00:00 | |
| OM5KV | 2026-08-30 06:30:34 | 44.13703 | 22.82859 | 85° | 15km/h | 27617m | 6.6m/s | -45.8°C | 0.0% | 0hPa | 0V | 00:00:00 | 00:00:00 | 00:00:00 | |
| OM5KV | 2026-08-30 06:30:32 | 44.13702 | 22.82851 | 130° | 5km/h | 27604m | 6.6m/s | -45.9°C | 0.0% | 0hPa | 0V | 00:00:00 | 00:00:00 | 00:00:00 | |
| OM5KV | 2026-08-30 06:30:27 | 44.13710 | 22.82826 | 96° | 29km/h | 27570m | 7.8m/s | -46.1°C | 0.0% | 0hPa | 0V | 00:00:00 | 00:00:00 | 00:00:00 | |
| OM5KV | 2026-08-30 06:30:21 | 44.13701 | 22.82789 | 312° | 7km/h | 27524m | 7.9m/s | -46.4°C | 0.0% | 0hPa | 0V | 00:00:00 | 00:00:00 | 00:00:00 | |
| OM5KV | 2026-08-30 06:30:14 | 44.13700 | 22.82764 | 97° | 27km/h | 27477m | 5.8m/s | -46.4°C | 0.0% | 0hPa | 0V | 00:00:00 | 00:00:00 | 00:00:00 | |
| OM5KV | 2026-08-30 06:30:06 | 44.13695 | 22.82749 | 117° | 24km/h | 27430m | 5.2m/s | -46.5°C | 0.0% | 0hPa | 0V | 00:00:00 | 00:00:00 | 00:00:00 | |
| LZ4TU-5 | 2026-08-30 06:29:59 | 44.13710 | 22.82744 | 347° | 11km/h | 27379m | 7.2m/s | -46.4°C | 0.0% | 0hPa | 0V | 00:00:00 | 00:00:00 | 00:00:00 | |
| LZ4TU-5 | 2026-08-30 06:29:54 | 44.13699 | 22.82747 | 148° | 9km/h | 27346m | 5.9m/s | -46.5°C | 0.0% | 0hPa | 0V | 00:00:00 | 00:00:00 | 00:00:00 | |
| OM5KV | 2026-08-30 06:29:51 | 44.13705 | 22.82736 | 115° | 11km/h | 27325m | 6.2m/s | -46.5°C | 0.0% | 0hPa | 0V | 00:00:00 | 00:00:00 | 00:00:00 | |
| LZ4TU-5 | 2026-08-30 06:29:49 | 44.13709 | 22.82733 | 167° | 9km/h | 27310m | 7.4m/s | -46.6°C | 0% | 0hPa | 0V | 00:00:00 | 00:00:00 | 00:00:00 | |
| OM5KV | 2026-08-30 06:29:41 | 44.13707 | 22.82736 | 167° | 24km/h | 27254m | 8.1m/s | -46.9°C | 0.0% | 0hPa | 0V | 00:00:00 | 00:00:00 | 00:00:00 | |
| OM5KV | 2026-08-30 06:29:34 | 44.13726 | 22.82725 | 28° | 15km/h | 27207m | 4.3m/s | -47.0°C | 0.0% | 0hPa | 0V | 00:00:00 | 00:00:00 | 00:00:00 | |
| OM5KV | 2026-08-30 06:29:32 | 44.13720 | 22.82725 | 332° | 11km/h | 27196m | 6.5m/s | -47.1°C | 0.0% | 0hPa | 0V | 00:00:00 | 00:00:00 | 00:00:00 | |
| OM5KV | 2026-08-30 06:29:18 | 44.13755 | 22.82737 | 187° | 22km/h | 27093m | 7.1m/s | -47.2°C | 0.0% | 0hPa | 0V | 00:00:00 | 00:00:00 | 00:00:00 | |
| OM5KV | 2026-08-30 06:29:16 | 44.13766 | 22.82739 | 161° | 20km/h | 27080m | 6.7m/s | -47.2°C | 0.0% | 0hPa | 0V | 00:00:00 | 00:00:00 | 00:00:00 | |
| OM5KV | 2026-08-30 06:29:05 | 44.13792 | 22.82727 | 168° | 27km/h | 27001m | 7.3m/s | -47.1°C | 0.0% | 0hPa | 0V | 00:00:00 | 00:00:00 | 00:00:00 | |
| OM5KV | 2026-08-30 06:28:59 | 44.13813 | 22.82699 | 135° | 9km/h | 26959m | 6.5m/s | -47.0°C | 0.0% | 0hPa | 0V | 00:00:00 | 00:00:00 | 00:00:00 | |
| OM5KV | 2026-08-30 06:28:48 | 44.13841 | 22.82689 | 186° | 9km/h | 26882m | 6.9m/s | -47.0°C | 0.0% | 0hPa | 0V | 00:00:00 | 00:00:00 | 00:00:00 | |
| OM5KV | 2026-08-30 06:28:29 | 44.13845 | 22.82686 | 156° | 9km/h | 26749m | 8.9m/s | -47.3°C | 0.0% | 0hPa | 0V | 00:00:00 | 00:00:00 | 00:00:00 | |
| OM5KV | 2026-08-30 06:28:24 | 44.13854 | 22.82646 | 119° | 24km/h | 26711m | 7.9m/s | -47.3°C | 0.0% | 0hPa | 0V | 00:00:00 | 00:00:00 | 00:00:00 | |
| LZ4TU-5 | 2026-08-30 06:28:23 | 44.13856 | 22.82638 | 107° | 24km/h | 26702m | 7.9m/s | -47.4°C | 0.0% | 0hPa | 0V | 00:00:00 | 00:00:00 | 00:00:00 | |
| LZ4TU-5 | 2026-08-30 06:28:18 | 44.13859 | 22.82644 | 181° | 9km/h | 26668m | 7.3m/s | -47.8°C | 0.0% | 0hPa | 0V | 00:00:00 | 00:00:00 | 00:00:00 | |
| OM5KV | 2026-08-30 06:28:16 | 44.13864 | 22.82628 | 99° | 31km/h | 26651m | 8.6m/s | -47.9°C | 0.0% | 0hPa | 0V | 00:00:00 | 00:00:00 | 00:00:00 | |
| OM5KV | 2026-08-30 06:28:07 | 44.13859 | 22.82566 | 231° | 4km/h | 26588m | 5.4m/s | -47.8°C | 0.0% | 0hPa | 0V | 00:00:00 | 00:00:00 | 00:00:00 | |
| OM5KV | 2026-08-30 06:28:05 | 44.13860 | 22.82561 | 97° | 11km/h | 26574m | 8.3m/s | -47.8°C | 0.0% | 0hPa | 0V | 00:00:00 | 00:00:00 | 00:00:00 | |
| OM5KV | 2026-08-30 06:27:58 | 44.13832 | 22.82532 | 230° | 5km/h | 26508m | 7.4m/s | -48.0°C | 0.0% | 0hPa | 0V | 00:00:00 | 00:00:00 | 00:00:00 | |
| OM5KV | 2026-08-30 06:27:57 | 44.13832 | 22.82532 | 230° | 5km/h | 26508m | 7.4m/s | -48.0°C | 0.0% | 0hPa | 0V | 00:00:00 | 00:00:00 | 00:00:00 | |
| OM5KV | 2026-08-30 06:27:51 | 44.13826 | 22.82514 | 26° | 33km/h | 26458m | 6.9m/s | -48.2°C | 0.0% | 0hPa | 0V | 00:00:00 | 00:00:00 | 00:00:00 | |
| OM5KV | 2026-08-30 06:27:42 | 44.13792 | 22.82532 | 351° | 18km/h | 26398m | 7.2m/s | -48.7°C | 0.0% | 0hPa | 0V | 00:00:00 | 00:00:00 | 00:00:00 | |
| LZ4TU-5 | 2026-08-30 06:26:54 | 44.13608 | 22.82818 | 279° | 20km/h | 26066m | 5.3m/s | -49.1°C | 0.0% | 0hPa | 0V | 00:00:00 | 00:00:00 | 00:00:00 | |
| LZ4TU-5 | 2026-08-30 06:26:49 | 44.13611 | 22.82854 | 249° | 24km/h | 26032m | 7.8m/s | -49.2°C | 0.0% | 0hPa | 0V | 00:00:00 | 00:00:00 | 00:00:00 | |
| OM5KV | 2026-08-30 06:25:35 | 44.13503 | 22.83108 | 307° | 29km/h | 25562m | 7.4m/s | -50.6°C | 0.0% | 0hPa | 0V | 00:00:00 | 00:00:00 | 00:00:00 | |
| LZ4TU-5 | 2026-08-30 06:25:23 | 44.13508 | 22.83191 | 272° | 24km/h | 25488m | 5.8m/s | -50.9°C | 0.0% | 0hPa | 0V | 00:00:00 | 00:00:00 | 00:00:00 | |
| LZ4TU-5 | 2026-08-30 06:25:18 | 44.13520 | 22.83212 | 172° | 11km/h | 25459m | 5.5m/s | -50.9°C | 0% | 0hPa | 0V | 00:00:00 | 00:00:00 | 00:00:00 | |
| OM5KV | 2026-08-30 06:25:13 | 44.13524 | 22.83214 | 258° | 5km/h | 25424m | 4.5m/s | -51.0°C | 0.0% | 0hPa | 0V | 00:00:00 | 00:00:00 | 00:00:00 | |
| OM5KV | 2026-08-30 06:25:06 | 44.13530 | 22.83230 | 43° | 2km/h | 25383m | 7.3m/s | -51.3°C | 0.0% | 0hPa | 0V | 00:00:00 | 00:00:00 | 00:00:00 | |
| OM5KV | 2026-08-30 06:24:46 | 44.13499 | 22.83222 | 12° | 24km/h | 25247m | 4.6m/s | -52.2°C | 0.0% | 0hPa | 0V | 00:00:00 | 00:00:00 | 00:00:00 | |
| OM5KV | 2026-08-30 06:24:22 | 44.13417 | 22.83308 | 321° | 29km/h | 25071m | 7.0m/s | -53.1°C | 0.0% | 0hPa | 0V | 00:00:00 | 00:00:00 | 00:00:00 | |
| OM5KV | 2026-08-30 06:24:10 | 44.13376 | 22.83368 | 316° | 33km/h | 24988m | 4.2m/s | -53.2°C | 0.0% | 0hPa | 0V | 00:00:00 | 00:00:00 | 00:00:00 | |
| OM5KV | 2026-08-30 06:24:08 | 44.13369 | 22.83386 | 283° | 29km/h | 24976m | 8.0m/s | -53.2°C | 0.0% | 0hPa | 0V | 00:00:00 | 00:00:00 | 00:00:00 | |
| LZ4TU-5 | 2026-08-30 06:23:53 | 44.13364 | 22.83499 | 264° | 40km/h | 24868m | 5.7m/s | -52.9°C | 0.0% | 0hPa | 0V | 00:00:00 | 00:00:00 | 00:00:00 | |
| LZ4TU-5 | 2026-08-30 06:23:49 | 44.13368 | 22.83529 | 277° | 13km/h | 24838m | 9.7m/s | -52.8°C | 0.0% | 0hPa | 0V | 00:00:00 | 00:00:00 | 00:00:00 | |
| OM5KV | 2026-08-30 06:22:55 | 44.13473 | 22.83861 | 220° | 13km/h | 24456m | 7.4m/s | -52.8°C | 0.0% | 0hPa | 0V | 00:00:00 | 00:00:00 | 00:00:00 | |
| LZ4TU-5 | 2026-08-30 06:22:21 | 44.13434 | 22.84007 | 312° | 24km/h | 24230m | 5.8m/s | -52.8°C | 0.0% | 0hPa | 0V | 00:00:00 | 00:00:00 | 00:00:00 | |
| LZ4TU-5 | 2026-08-30 06:22:17 | 44.13420 | 22.84032 | 318° | 24km/h | 24206m | 6.7m/s | -53.0°C | 0.0% | 0hPa | 0V | 00:00:00 | 00:00:00 | 00:00:00 | |
| OM5KV | 2026-08-30 06:22:16 | 44.13414 | 22.84038 | 323° | 27km/h | 24196m | 9.3m/s | -53.0°C | 0.0% | 0hPa | 0V | 00:00:00 | 00:00:00 | 00:00:00 | |
| OM5KV | 2026-08-30 06:22:06 | 44.13378 | 22.84099 | 328° | 18km/h | 24136m | 4.8m/s | -53.1°C | 0.0% | 0hPa | 0V | 00:00:00 | 00:00:00 | 00:00:00 | |
| OM5KV | 2026-08-30 06:21:58 | 44.13361 | 22.84158 | 274° | 20km/h | 24084m | 4.4m/s | -52.9°C | 0.0% | 0hPa | 0V | 00:00:00 | 00:00:00 | 00:00:00 | |
| LZ4TU-5 | 2026-08-30 06:20:45 | 44.13395 | 22.84541 | 233° | 15km/h | 23629m | 7.8m/s | -54.5°C | 0.0% | 0hPa | 0V | 00:00:00 | 00:00:00 | 00:00:00 | |
| LZ4TU-5 | 2026-08-30 06:20:40 | 44.13400 | 22.84553 | 331° | 15km/h | 23599m | 6.2m/s | -54.5°C | 0.0% | 0hPa | 0V | 00:00:00 | 00:00:00 | 00:00:00 | |
| LZ4TU-5 | 2026-08-30 06:19:16 | 44.13152 | 22.85121 | 277° | 33km/h | 23033m | 6.1m/s | -54.4°C | 0.0% | 0hPa | 0V | 00:00:00 | 00:00:00 | 00:00:00 | |
| LZ4TU-5 | 2026-08-30 06:19:11 | 44.13145 | 22.85163 | 252° | 18km/h | 22994m | 7.5m/s | -54.3°C | 0% | 0hPa | 0V | 00:00:00 | 00:00:00 | 00:00:00 | |
| LZ4TU-5 | 2026-08-30 06:17:46 | 44.13043 | 22.85561 | 278° | 24km/h | 22433m | 6.1m/s | -55.5°C | 0.0% | 0hPa | 0V | 00:00:00 | 00:00:00 | 00:00:00 | |
| LZ4TU-5 | 2026-08-30 06:17:41 | 44.13050 | 22.85608 | 270° | 18km/h | 22403m | 5.8m/s | -55.5°C | 0.0% | 0hPa | 0V | 00:00:00 | 00:00:00 | 00:00:00 | |
| LZ4TU-5 | 2026-08-30 06:16:17 | 44.13111 | 22.86109 | 240° | 31km/h | 21864m | 6.0m/s | -55.6°C | 0.0% | 0hPa | 0V | 00:00:00 | 00:00:00 | 00:00:00 | |
| LZ4TU-5 | 2026-08-30 06:16:12 | 44.13127 | 22.86146 | 229° | 13km/h | 21832m | 5.5m/s | -55.6°C | 0.0% | 0hPa | 0V | 00:00:00 | 00:00:00 | 00:00:00 | |
| LZ4TU-5 | 2026-08-30 06:14:47 | 44.13118 | 22.86286 | 302° | 11km/h | 21306m | 4.3m/s | -55.8°C | 0.0% | 0hPa | 0V | 00:00:00 | 00:00:00 | 00:00:00 | |
| LZ4TU-5 | 2026-08-30 06:14:42 | 44.13120 | 22.86294 | 0° | 0km/h | 21273m | 5.4m/s | -55.6°C | 0% | 0hPa | 0V | 00:00:00 | 00:00:00 | 00:00:00 | |
| LZ4TU-5 | 2026-08-30 06:13:18 | 44.13099 | 22.86436 | 350° | 13km/h | 20749m | 5.4m/s | -56.0°C | 0.0% | 0hPa | 0V | 00:00:00 | 00:00:00 | 00:00:00 | |
| LZ4TU-5 | 2026-08-30 06:13:14 | 44.13082 | 22.86453 | 312° | 27km/h | 20722m | 7.3m/s | -56.0°C | 0.0% | 0hPa | 0V | 00:00:00 | 00:00:00 | 00:00:00 | |
| LZ4TU-5 | 2026-08-30 06:11:51 | 44.13014 | 22.86707 | 144° | 9km/h | 20206m | 5.9m/s | -56.9°C | 0.0% | 0hPa | 0V | 00:00:00 | 00:00:00 | 00:00:00 | |
| LZ4TU-5 | 2026-08-30 06:11:46 | 44.13035 | 22.86703 | 174° | 15km/h | 20178m | 5.6m/s | -57.1°C | 0.0% | 0hPa | 0V | 00:00:00 | 00:00:00 | 00:00:00 | |
| LZ4TU-5 | 2026-08-30 06:10:22 | 44.13112 | 22.86863 | 177° | 7km/h | 19693m | 4.3m/s | -56.2°C | 0.0% | 0hPa | 0V | 00:00:00 | 00:00:00 | 00:00:00 | |
| LZ4TU-5 | 2026-08-30 06:10:17 | 44.13126 | 22.86854 | 139° | 20km/h | 19664m | 4.0m/s | -56.1°C | 0% | 0hPa | 0V | 00:00:00 | 00:00:00 | 00:00:00 | |
| LZ4TU-5 | 2026-08-30 06:08:52 | 44.13113 | 22.86955 | 158° | 9km/h | 19158m | 6.8m/s | -56.5°C | 0.0% | 0hPa | 0V | 00:00:00 | 00:00:00 | 00:00:00 | |
| LZ4TU-5 | 2026-08-30 06:08:47 | 44.13119 | 22.86943 | 119° | 5km/h | 19128m | 4.4m/s | -56.5°C | 0.0% | 0hPa | 0V | 00:00:00 | 00:00:00 | 00:00:00 | |
| LZ4TU-5 | 2026-08-30 06:07:23 | 44.13120 | 22.86798 | 111° | 9km/h | 18621m | 6.4m/s | -56.0°C | 0.0% | 0hPa | 0V | 00:00:00 | 00:00:00 | 00:00:00 | |
| LZ4TU-5 | 2026-08-30 06:07:18 | 44.13116 | 22.86771 | 73° | 27km/h | 18592m | 5.6m/s | -56.2°C | 0.0% | 0hPa | 0V | 00:00:00 | 00:00:00 | 00:00:00 | |
| LZ4TU-5 | 2026-08-30 06:05:53 | 44.13132 | 22.86293 | 121° | 18km/h | 18093m | 7.7m/s | -57.3°C | 0.0% | 0hPa | 0V | 00:00:00 | 00:00:00 | 00:00:00 | |
| LZ4TU-5 | 2026-08-30 06:05:48 | 44.13130 | 22.86269 | 94° | 18km/h | 18064m | 6.4m/s | -57.3°C | 0.0% | 0hPa | 0V | 00:00:00 | 00:00:00 | 00:00:00 | |
| LZ4TU-5 | 2026-08-30 06:04:21 | 44.12957 | 22.86156 | 13° | 22km/h | 17520m | 5.3m/s | -58.5°C | 0.0% | 0hPa | 0V | 00:00:00 | 00:00:00 | 00:00:00 | |
| LZ4TU-5 | 2026-08-30 06:04:17 | 44.12935 | 22.86153 | 352° | 16km/h | 17490m | 5.9m/s | -58.7°C | 0% | 0hPa | 0V | 00:00:00 | 00:00:00 | 00:00:00 | |
| LZ4TU-5 | 2026-08-30 06:02:52 | 44.12988 | 22.86379 | 159° | 33km/h | 16907m | 6.5m/s | -56.7°C | 0.4% | 0hPa | 0V | 00:00:00 | 00:00:00 | 00:00:00 | |
| LZ4TU-5 | 2026-08-30 06:02:47 | 44.13034 | 22.86355 | 160° | 40km/h | 16878m | 6.1m/s | -56.7°C | 0.4% | 0hPa | 0V | 00:00:00 | 00:00:00 | 00:00:00 | |
| LZ4TU-5 | 2026-08-30 06:01:22 | 44.13595 | 22.85275 | 100° | 69km/h | 16377m | 6.4m/s | -57.7°C | 0.7% | 0hPa | 0V | 00:00:00 | 00:00:00 | 00:00:00 | |
| LZ4TU-5 | 2026-08-30 06:01:17 | 44.13613 | 22.85181 | 106° | 49km/h | 16349m | 5.3m/s | -57.6°C | 0.6% | 0hPa | 0V | 00:00:00 | 00:00:00 | 00:00:00 | |
| LZ4TU-5 | 2026-08-30 05:59:53 | 44.13594 | 22.83660 | 136° | 47km/h | 15872m | 5.2m/s | -58.2°C | 1.1% | 0hPa | 0V | 00:00:00 | 00:00:00 | 00:00:00 | |
| LZ4TU-5 | 2026-08-30 05:59:48 | 44.13603 | 22.83612 | 64° | 35km/h | 15842m | 2.9m/s | -58.5°C | 0% | 0hPa | 0V | 00:00:00 | 00:00:00 | 00:00:00 | |
| LZ4TU-5 | 2026-08-30 05:58:23 | 44.13675 | 22.82486 | 70° | 29km/h | 15328m | 7.0m/s | -59.5°C | 2.7% | 0hPa | 0V | 00:00:00 | 00:00:00 | 00:00:00 | |
| LZ4TU-5 | 2026-08-30 05:58:18 | 44.13670 | 22.82447 | 102° | 26km/h | 15299m | 4.2m/s | -59.5°C | 2.8% | 0hPa | 0V | 00:00:00 | 00:00:00 | 00:00:00 | |
| LZ4TU-5 | 2026-08-30 05:56:51 | 44.13956 | 22.81309 | 114° | 44km/h | 14788m | 5.6m/s | -59.0°C | 5.1% | 0hPa | 0V | 00:00:00 | 00:00:00 | 00:00:00 | |
| LZ4TU-5 | 2026-08-30 05:56:47 | 44.13971 | 22.81258 | 102° | 44km/h | 14767m | 6.4m/s | -58.8°C | 5.2% | 0hPa | 0V | 00:00:00 | 00:00:00 | 00:00:00 | |
| LZ4TU-5 | 2026-08-30 05:55:23 | 44.14080 | 22.80240 | 98° | 57km/h | 14267m | 8.7m/s | -57.7°C | 10.1% | 0hPa | 0V | 00:00:00 | 00:00:00 | 00:00:00 | |
| LZ4TU-5 | 2026-08-30 05:55:18 | 44.14132 | 22.80171 | 153° | 47km/h | 14235m | 4.5m/s | -57.7°C | 10.7% | 0hPa | 0V | 00:00:00 | 00:00:00 | 00:00:00 | |
| LZ4TU-5 | 2026-08-30 05:53:50 | 44.14699 | 22.78657 | 126° | 66km/h | 13667m | 5.2m/s | -59.7°C | 16.5% | 0hPa | 0V | 00:00:00 | 00:00:00 | 00:00:00 | |
| LZ4TU-5 | 2026-08-30 05:53:46 | 44.14742 | 22.78592 | 135° | 46km/h | 13645m | 5.3m/s | -59.5°C | 16.6% | 0hPa | 0V | 00:00:00 | 00:00:00 | 00:00:00 | |
| LZ4TU-5 | 2026-08-30 05:52:06 | 44.15249 | 22.77116 | 124° | 33km/h | 13052m | 7.9m/s | -57.6°C | 21.8% | 0hPa | 0V | 00:00:00 | 00:00:00 | 00:00:00 | |
| LZ4TU-5 | 2026-08-30 05:52:01 | 44.15289 | 22.77053 | 137° | 58km/h | 13017m | 5.5m/s | -57.5°C | 22.2% | 0hPa | 0V | 00:00:00 | 00:00:00 | 00:00:00 | |
| LZ4TU-5 | 2026-08-30 05:50:23 | 44.16130 | 22.75234 | 140° | 47km/h | 12408m | 6.0m/s | -56.0°C | 30.4% | 0hPa | 0V | 00:00:00 | 00:00:00 | 00:00:00 | |
| LZ4TU-5 | 2026-08-30 05:50:18 | 44.16168 | 22.75151 | 125° | 75km/h | 12383m | 6.0m/s | -55.8°C | 30.8% | 0hPa | 0V | 00:00:00 | 00:00:00 | 00:00:00 | |
| LZ4TU-5 | 2026-08-30 05:48:54 | 44.17133 | 22.73615 | 143° | 78km/h | 11898m | 6.3m/s | -53.6°C | 38.8% | 0hPa | 0V | 00:00:00 | 00:00:00 | 00:00:00 | |
| LZ4TU-5 | 2026-08-30 05:48:49 | 44.17191 | 22.73538 | 131° | 51km/h | 11868m | 6.0m/s | -53.4°C | 39.3% | 0hPa | 0V | 00:00:00 | 00:00:00 | 00:00:00 | |
| LZ4TU-5 | 2026-08-30 05:47:24 | 44.18286 | 22.72027 | 141° | 84km/h | 11372m | 6.6m/s | -50.9°C | 47.0% | 0hPa | 0V | 00:00:00 | 00:00:00 | 00:00:00 | |
| LZ4TU-5 | 2026-08-30 05:47:19 | 44.18351 | 22.71921 | 128° | 75km/h | 11340m | 5.8m/s | -50.6°C | 46.9% | 0hPa | 0V | 00:00:00 | 00:00:00 | 00:00:00 | |
| LZ4TU-5 | 2026-08-30 05:45:53 | 44.19385 | 22.70378 | 149° | 68km/h | 10853m | 8.3m/s | -47.5°C | 44.2% | 0hPa | 0V | 00:00:00 | 00:00:00 | 00:00:00 | |
| LZ4TU-5 | 2026-08-30 05:45:49 | 44.19433 | 22.70337 | 127° | 57km/h | 10830m | 8.2m/s | -47.3°C | 45.6% | 0hPa | 0V | 00:00:00 | 00:00:00 | 00:00:00 | |
| LZ4TU-5 | 2026-08-30 05:44:25 | 44.20239 | 22.68888 | 129° | 68km/h | 10344m | 5.6m/s | -43.6°C | 56.7% | 0hPa | 0V | 00:00:00 | 00:00:00 | 00:00:00 | |
| LZ4TU-5 | 2026-08-30 05:44:21 | 44.20283 | 22.68831 | 143° | 44km/h | 10323m | 4.7m/s | -43.5°C | 57.4% | 0hPa | 0V | 00:00:00 | 00:00:00 | 00:00:00 | |
| LZ4TU-5 | 2026-08-30 05:42:59 | 44.20962 | 22.67482 | 120° | 53km/h | 9839m | 7.5m/s | -39.3°C | 53.9% | 0hPa | 0V | 00:00:00 | 00:00:00 | 00:00:00 | |
| LZ4TU-5 | 2026-08-30 05:42:54 | 44.21006 | 22.67395 | 130° | 60km/h | 9807m | 5.6m/s | -39.0°C | 0% | 0hPa | 0V | 00:00:00 | 00:00:00 | 00:00:00 | |
| LZ4TU-5 | 2026-08-30 05:41:33 | 44.21608 | 22.65968 | 98° | 47km/h | 9346m | 6.3m/s | -35.4°C | 47.0% | 0hPa | 0V | 00:00:00 | 00:00:00 | 00:00:00 | |
| LZ4TU-5 | 2026-08-30 05:41:28 | 44.21641 | 22.65891 | 138° | 71km/h | 9315m | 5.4m/s | -35.1°C | 45.8% | 0hPa | 0V | 00:00:00 | 00:00:00 | 00:00:00 | |
| LZ4TU-5 | 2026-08-30 05:40:08 | 44.22158 | 22.64462 | 145° | 40km/h | 8877m | 4.9m/s | -31.7°C | 35.0% | 0hPa | 0V | 00:00:00 | 00:00:00 | 00:00:00 | |
| LZ4TU-5 | 2026-08-30 05:40:04 | 44.22197 | 22.64406 | 119° | 69km/h | 8857m | 6.5m/s | -31.5°C | 32.3% | 0hPa | 0V | 00:00:00 | 00:00:00 | 00:00:00 | |
| LZ4TU-5 | 2026-08-30 05:38:35 | 44.22443 | 22.63255 | 96° | 44km/h | 8350m | 7.5m/s | -27.2°C | 19.5% | 0hPa | 0V | 00:00:00 | 00:00:00 | 00:00:00 | |
| LZ4TU-5 | 2026-08-30 05:38:31 | 44.22432 | 22.63192 | 79° | 33km/h | 8335m | 4.1m/s | -27.0°C | 0% | 0hPa | 0V | 00:00:00 | 00:00:00 | 00:00:00 | |
| LZ4TU-5 | 2026-08-30 05:37:10 | 44.22688 | 22.62199 | 142° | 35km/h | 7879m | 7.4m/s | -23.3°C | 17.7% | 0hPa | 0V | 00:00:00 | 00:00:00 | 00:00:00 | |
| LZ4TU-5 | 2026-08-30 05:37:05 | 44.22719 | 22.62177 | 120° | 31km/h | 7854m | 6.9m/s | -23.1°C | 17.4% | 0hPa | 0V | 00:00:00 | 00:00:00 | 00:00:00 | |
| LZ4TU-5 | 2026-08-30 05:34:47 | 44.23347 | 22.60327 | 158° | 44km/h | 7059m | 5.0m/s | -16.6°C | 21.6% | 0hPa | 0V | 00:00:00 | 00:00:00 | 00:00:00 | |
| LZ4TU-5 | 2026-08-30 05:34:42 | 44.23385 | 22.60283 | 105° | 33km/h | 7032m | 7.8m/s | -16.6°C | 24.8% | 0hPa | 0V | 00:00:00 | 00:00:00 | 00:00:00 | |
| LZ4TU-5 | 2026-08-30 05:33:35 | 44.23660 | 22.59622 | 146° | 42km/h | 6660m | 5.6m/s | -14.5°C | 32.0% | 0hPa | 0V | 00:00:00 | 00:00:00 | 00:00:00 | |
| LZ4TU-5 | 2026-08-30 05:33:30 | 44.23688 | 22.59576 | 107° | 47km/h | 6630m | 8.3m/s | -14.5°C | 31.6% | 0hPa | 0V | 00:00:00 | 00:00:00 | 00:00:00 | |
| LZ4TU-5 | 2026-08-30 05:32:18 | 44.24018 | 22.59021 | 61° | 5km/h | 6243m | 5.3m/s | -11.5°C | 0% | 0hPa | 0V | 00:00:00 | 00:00:00 | 00:00:00 | |
| LZ4TU-5 | 2026-08-30 05:31:06 | 44.24099 | 22.58632 | 22° | 11km/h | 5824m | 5.2m/s | -9.4°C | 24.7% | 0hPa | 0V | 00:00:00 | 00:00:00 | 00:00:00 | |
| LZ4TU-5 | 2026-08-30 05:31:01 | 44.24097 | 22.58582 | 133° | 35km/h | 5797m | 5.7m/s | -9.1°C | 23.5% | 0hPa | 0V | 00:00:00 | 00:00:00 | 00:00:00 | |
| LZ4TU-5 | 2026-08-30 05:29:53 | 44.24230 | 22.58195 | 55° | 9km/h | 5394m | 5.2m/s | -7.5°C | 16.8% | 0hPa | 0V | 00:00:00 | 00:00:00 | 00:00:00 | |
| LZ4TU-5 | 2026-08-30 05:29:48 | 44.24241 | 22.58201 | 183° | 15km/h | 5361m | 3.6m/s | -7.2°C | 14.7% | 0hPa | 0V | 00:00:00 | 00:00:00 | 00:00:00 | |
| LZ4TU-5 | 2026-08-30 05:28:39 | 44.24203 | 22.57781 | 77° | 16km/h | 4951m | 7.0m/s | -4.5°C | 17.1% | 0hPa | 0V | 00:00:00 | 00:00:00 | 00:00:00 | |
| LZ4TU-5 | 2026-08-30 05:28:34 | 44.24174 | 22.57743 | 23° | 24km/h | 4926m | 3.4m/s | -4.3°C | 17.2% | 0hPa | 0V | 00:00:00 | 00:00:00 | 00:00:00 | |
| LZ4TU-5 | 2026-08-30 05:27:25 | 44.24176 | 22.57176 | 61° | 42km/h | 4527m | 8.3m/s | -1.9°C | 15.7% | 0hPa | 0V | 00:00:00 | 00:00:00 | 00:00:00 | |
| LZ4TU-5 | 2026-08-30 05:27:20 | 44.24164 | 22.57124 | 111° | 22km/h | 4496m | 5.3m/s | -1.7°C | 15.7% | 0hPa | 0V | 00:00:00 | 00:00:00 | 00:00:00 | |
| LZ4TU-5 | 2026-08-30 05:26:19 | 44.24197 | 22.56549 | 128° | 18km/h | 4143m | 6.4m/s | -0.0°C | 22.8% | 0hPa | 0V | 00:00:00 | 00:00:00 | 00:00:00 | |
| LZ4TU-5 | 2026-08-30 05:26:14 | 44.24203 | 22.56536 | 94° | 16km/h | 4115m | 5.2m/s | 0.1°C | 26.7% | 0hPa | 0V | 00:00:00 | 00:00:00 | 00:00:00 | |
| LZ4TU-5 | 2026-08-30 05:25:12 | 44.24221 | 22.56000 | 85° | 15km/h | 3761m | 6.6m/s | 1.3°C | 52.9% | 0hPa | 0V | 00:00:00 | 00:00:00 | 00:00:00 | |
| LZ4TU-5 | 2026-08-30 05:25:07 | 44.24210 | 22.55954 | 98° | 31km/h | 3733m | 5.9m/s | 1.3°C | 57.9% | 0hPa | 0V | 00:00:00 | 00:00:00 | 00:00:00 | |
| LZ4TU-5 | 2026-08-30 05:24:12 | 44.24166 | 22.55557 | 102° | 37km/h | 3424m | 5.2m/s | 4.0°C | 48.3% | 0hPa | 0V | 00:00:00 | 00:00:00 | 00:00:00 | |
| LZ4TU-5 | 2026-08-30 05:24:07 | 44.24166 | 22.55514 | 109° | 16km/h | 3396m | 5.9m/s | 4.3°C | 0% | 0hPa | 0V | 00:00:00 | 00:00:00 | 00:00:00 | |
| LZ4TU-5 | 2026-08-30 05:23:12 | 44.24166 | 22.55147 | 83° | 20km/h | 3066m | 5.1m/s | 6.3°C | 68.9% | 0hPa | 0V | 00:00:00 | 00:00:00 | 00:00:00 | |
| LZ4TU-5 | 2026-08-30 05:23:07 | 44.24168 | 22.55108 | 76° | 27km/h | 3036m | 6.3m/s | 6.5°C | 68.5% | 0hPa | 0V | 00:00:00 | 00:00:00 | 00:00:00 | |
| LZ4TU-5 | 2026-08-30 05:22:13 | 44.24142 | 22.54663 | 73° | 22km/h | 2710m | 6.0m/s | 9.6°C | 57.6% | 0hPa | 0V | 00:00:00 | 00:00:00 | 00:00:00 | |
| LZ4TU-5 | 2026-08-30 05:22:08 | 44.24139 | 22.54622 | 100° | 20km/h | 2680m | 5.9m/s | 9.9°C | 0% | 0hPa | 0V | 00:00:00 | 00:00:00 | 00:00:00 | |
| LZ4TU-5 | 2026-08-30 05:21:09 | 44.24117 | 22.54225 | 69° | 7km/h | 2330m | 6.3m/s | 12.8°C | 50.4% | 0hPa | 0V | 00:00:00 | 00:00:00 | 00:00:00 | |
| LZ4TU-5 | 2026-08-30 05:20:15 | 44.24093 | 22.53980 | 81° | 22km/h | 1993m | 6.1m/s | 14.9°C | 49.2% | 0hPa | 0V | 00:00:00 | 00:00:00 | 00:00:00 | |
| LZ4TU-5 | 2026-08-30 05:20:10 | 44.24090 | 22.53949 | 72° | 16km/h | 1962m | 6.2m/s | 14.7°C | 53.0% | 0hPa | 0V | 00:00:00 | 00:00:00 | 00:00:00 | |
| LZ4TU-5 | 2026-08-30 05:19:15 | 44.24153 | 22.53569 | 106° | 18km/h | 1614m | 6.1m/s | 16.4°C | 60.3% | 0hPa | 0V | 00:00:00 | 00:00:00 | 00:00:00 | |
| LZ4TU-5 | 2026-08-30 05:19:11 | 44.24159 | 22.53540 | 101° | 20km/h | 1588m | 6.3m/s | 16.6°C | 57.8% | 0hPa | 0V | 00:00:00 | 00:00:00 | 00:00:00 | |
| LZ4TU-5 | 2026-08-30 05:18:17 | 44.24320 | 22.53301 | 183° | 15km/h | 1258m | 6.3m/s | 17.4°C | 64.1% | 0hPa | 0V | 00:00:00 | 00:00:00 | 00:00:00 | |
| LZ4TU-5 | 2026-08-30 05:18:12 | 44.24342 | 22.53297 | 175° | 22km/h | 1227m | 7.3m/s | 17.5°C | 64.2% | 0hPa | 0V | 00:00:00 | 00:00:00 | 00:00:00 | |
| LZ4TU-5 | 2026-08-30 05:17:17 | 44.24284 | 22.53448 | 323° | 16km/h | 884m | 6.0m/s | 19.0°C | 56.7% | 0hPa | 0V | 00:00:00 | 00:00:00 | 00:00:00 | |
| LZ4TU-5 | 2026-08-30 05:17:12 | 44.24262 | 22.53467 | 333° | 20km/h | 850m | 6.8m/s | 19.3°C | 0% | 0hPa | 0V | 00:00:00 | 00:00:00 | 00:00:00 | |
| LZ4TU-5 | 2026-08-30 05:16:18 | 44.23967 | 22.53604 | 329° | 16km/h | 513m | 6.4m/s | 19.9°C | 60.0% | 0hPa | 0V | 00:00:00 | 00:00:00 | 00:00:00 | |
| LZ4TU-5 | 2026-08-30 05:16:13 | 44.23950 | 22.53613 | 359° | 9km/h | 481m | 6.3m/s | 19.8°C | 0% | 0hPa | 0V | 00:00:00 | 00:00:00 | 00:00:00 |